timestamp,wind_dir_avg,wind_spd_avg,wind_spd_max_dir,wind_spd_gust,battery_voltage,lat,long
2021-11-02 00:04:00+00:00,215.0,8.14,214.0,8.81,12.41,47.59359,-54.27349
2021-11-02 00:14:01+00:00,216.0,7.26,215.0,7.8,12.41,47.59359,-54.27349
2021-11-02 00:24:01+00:00,219.0,6.81,221.0,7.57,12.41,47.59359,-54.27349
2021-11-02 00:34:01+00:00,211.0,7.19,210.0,7.96,12.41,47.59359,-54.27349
2021-11-02 00:44:01+00:00,222.0,6.64,219.0,7.33,12.41,47.59359,-54.27349
2021-11-02 00:54:01+00:00,215.0,7.23,214.0,7.65,12.41,47.59359,-54.27349
2021-11-02 01:04:01+00:00,315.0,0.01,214.0,0.0,12.41,47.59359,-54.27349
2021-11-02 01:14:00+00:00,218.0,6.68,215.0,7.25,12.41,47.59359,-54.27349
2021-11-02 01:24:00+00:00,208.0,6.68,209.0,7.21,12.41,47.59359,-54.27349
2021-11-02 01:34:00+00:00,210.0,6.7,210.0,7.18,12.41,47.59359,-54.27349
2021-11-02 01:44:00+00:00,214.0,6.46,217.0,6.86,12.41,47.59359,-54.27349
2021-11-02 01:54:00+00:00,315.0,0.01,218.0,0.0,12.41,47.59359,-54.27349
2021-11-02 02:04:00+00:00,315.0,0.01,218.0,0.0,12.41,47.59359,-54.27349
2021-11-02 02:14:00+00:00,315.0,0.01,218.0,0.0,12.33,47.59359,-54.27349
2021-11-02 02:24:00+00:00,232.0,4.36,233.0,4.86,12.33,47.59359,-54.27349
2021-11-02 02:34:00+00:00,240.0,4.26,236.0,4.76,12.33,47.59359,-54.27349
2021-11-02 02:44:00+00:00,248.0,4.78,249.0,5.12,12.33,47.59359,-54.27349
2021-11-02 02:54:00+00:00,254.0,4.99,254.0,5.44,12.33,47.59359,-54.27349
2021-11-02 03:04:00+00:00,256.0,4.66,256.0,5.11,12.33,47.59359,-54.27349
2021-11-02 03:14:00+00:00,262.0,4.92,262.0,5.31,12.33,47.59359,-54.27349
2021-11-02 03:24:00+00:00,244.0,4.86,243.0,5.36,12.33,47.59359,-54.27349
2021-11-02 03:34:00+00:00,255.0,4.73,257.0,4.93,12.33,47.59359,-54.27349
2021-11-02 03:44:00+00:00,259.0,5.45,264.0,6.39,12.33,47.59359,-54.27349
2021-11-02 03:54:00+00:00,248.0,5.57,253.0,6.18,12.33,47.59359,-54.27349
2021-11-02 04:04:00+00:00,250.0,5.22,242.0,5.94,12.33,47.59359,-54.27349
2021-11-02 04:14:00+00:00,238.0,3.73,239.0,4.21,12.33,47.59359,-54.27349
2021-11-02 04:24:00+00:00,226.0,3.57,232.0,4.39,12.33,47.59359,-54.27349
2021-11-02 04:34:00+00:00,219.0,4.41,218.0,4.93,12.33,47.59359,-54.27349
2021-11-02 04:44:00+00:00,215.0,4.16,219.0,5.08,12.33,47.59359,-54.27349
2021-11-02 04:54:00+00:00,221.0,4.34,221.0,4.79,12.33,47.59359,-54.27349
2021-11-02 05:04:00+00:00,217.0,4.11,226.0,5.15,12.33,47.59359,-54.27349
2021-11-02 05:14:01+00:00,214.0,4.01,218.0,4.87,12.33,47.59359,-54.27349
2021-11-02 05:24:01+00:00,208.0,4.6,214.0,5.22,12.33,47.59359,-54.27349
2021-11-02 05:34:01+00:00,213.0,4.21,216.0,4.75,12.33,47.59359,-54.27349
2021-11-02 05:44:01+00:00,197.0,4.51,201.0,5.14,12.33,47.59359,-54.27349
2021-11-02 05:54:01+00:00,207.0,4.2,208.0,4.85,12.33,47.59359,-54.27349
2021-11-02 06:04:01+00:00,212.0,4.82,214.0,5.84,12.33,47.59359,-54.27349
2021-11-02 06:14:00+00:00,212.0,4.35,214.0,5.1,12.33,47.59359,-54.27349
2021-11-02 06:24:00+00:00,220.0,4.96,218.0,5.57,12.33,47.59359,-54.27349
2021-11-02 06:34:00+00:00,224.0,4.82,223.0,5.34,12.33,47.59359,-54.27349
2021-11-02 06:44:00+00:00,218.0,4.82,215.0,5.4,12.33,47.59359,-54.27349
2021-11-02 06:54:00+00:00,212.0,5.28,214.0,6.12,12.33,47.59359,-54.27349
2021-11-02 07:04:00+00:00,207.0,5.56,210.0,6.17,12.33,47.59359,-54.27349
2021-11-02 07:14:01+00:00,210.0,5.64,209.0,6.24,12.33,47.59359,-54.27349
2021-11-02 07:24:01+00:00,211.0,5.48,207.0,6.09,12.33,47.59359,-54.27349
2021-11-02 07:34:01+00:00,213.0,5.74,212.0,6.59,12.33,47.59359,-54.27349
2021-11-02 07:44:01+00:00,212.0,5.79,210.0,6.64,12.33,47.59359,-54.27349
2021-11-02 07:54:01+00:00,217.0,6.33,217.0,7.16,12.33,47.59359,-54.27349
2021-11-02 08:04:01+00:00,214.0,6.01,215.0,6.64,12.33,47.59359,-54.27349
2021-11-02 08:14:01+00:00,208.0,6.58,207.0,7.07,12.33,47.59359,-54.27349
2021-11-02 08:24:01+00:00,214.0,6.49,214.0,6.96,12.33,47.59359,-54.27349
2021-11-02 08:34:01+00:00,214.0,6.45,211.0,6.98,12.33,47.59359,-54.27349
2021-11-02 08:44:01+00:00,216.0,6.01,214.0,6.68,12.33,47.59359,-54.27349
2021-11-02 08:54:01+00:00,214.0,5.63,211.0,6.21,12.33,47.59359,-54.27349
2021-11-02 09:04:01+00:00,216.0,5.61,216.0,6.61,12.33,47.59359,-54.27349
2021-11-02 09:14:01+00:00,212.0,5.22,213.0,5.93,12.33,47.59359,-54.27349
2021-11-02 09:24:01+00:00,208.0,5.54,209.0,6.27,12.33,47.59359,-54.27349
2021-11-02 09:34:01+00:00,205.0,6.14,202.0,6.61,12.33,47.59359,-54.27349
2021-11-02 09:44:01+00:00,203.0,5.55,199.0,6.43,12.33,47.59359,-54.27349
2021-11-02 09:54:01+00:00,209.0,4.66,211.0,5.38,12.33,47.59359,-54.27349
2021-11-02 10:04:01+00:00,211.0,4.42,213.0,4.94,12.33,47.59359,-54.27349
2021-11-02 10:14:00+00:00,204.0,4.19,208.0,4.64,12.33,47.59359,-54.27349
2021-11-02 10:24:00+00:00,201.0,4.1,202.0,4.69,12.33,47.59359,-54.27349
2021-11-02 10:34:00+00:00,205.0,4.65,206.0,5.07,12.33,47.59359,-54.27349
2021-11-02 10:44:00+00:00,204.0,4.37,204.0,5.05,12.33,47.59359,-54.27349
2021-11-02 10:54:00+00:00,208.0,4.63,210.0,5.06,12.33,47.59359,-54.27349
2021-11-02 11:04:00+00:00,211.0,4.75,218.0,5.28,12.33,47.59359,-54.27349
2021-11-02 11:14:00+00:00,208.0,4.77,210.0,5.05,12.57,47.59359,-54.27349
2021-11-02 11:24:00+00:00,212.0,4.25,212.0,4.77,12.57,47.59359,-54.27349
2021-11-02 11:34:00+00:00,218.0,3.34,222.0,3.59,12.57,47.59359,-54.27349
2021-11-02 11:44:00+00:00,230.0,2.84,233.0,3.22,12.57,47.59359,-54.27349
2021-11-02 11:54:00+00:00,238.0,2.31,240.0,2.59,12.57,47.59359,-54.27349
2021-11-02 12:04:00+00:00,226.0,2.52,227.0,3.19,12.57,47.59359,-54.27349
2021-11-02 14:14:01+00:00,325.0,6.93,327.0,7.89,14.24,47.59359,-54.27349
2021-11-02 14:24:01+00:00,320.0,6.39,321.0,6.98,14.24,47.59359,-54.27349
2021-11-02 14:34:01+00:00,325.0,6.35,327.0,7.22,14.24,47.59359,-54.27349
2021-11-02 14:44:01+00:00,330.0,5.57,325.0,6.23,14.24,47.59359,-54.27349
2021-11-02 14:54:01+00:00,294.0,6.36,298.0,7.1,14.24,47.59359,-54.27349
2021-11-02 15:04:01+00:00,304.0,5.33,309.0,5.78,14.24,47.59359,-54.27349
2021-11-02 15:14:01+00:00,299.0,5.97,304.0,6.45,13.68,47.59359,-54.27349
2021-11-02 15:24:01+00:00,295.0,5.64,290.0,6.47,13.68,47.59359,-54.27349
2021-11-02 15:34:01+00:00,295.0,5.63,294.0,6.59,13.68,47.59359,-54.27349
2021-11-02 15:44:01+00:00,288.0,4.95,285.0,5.49,13.68,47.59359,-54.27349
2021-11-02 15:54:01+00:00,289.0,5.19,281.0,5.76,13.68,47.59359,-54.27349
2021-11-02 16:04:01+00:00,291.0,5.09,293.0,5.65,13.68,47.59359,-54.27349
2021-11-02 16:14:01+00:00,291.0,4.8,291.0,5.26,13.6,47.59359,-54.27349
2021-11-02 16:24:01+00:00,293.0,5.31,293.0,5.8,13.6,47.59359,-54.27349
2021-11-02 16:34:01+00:00,283.0,4.75,279.0,5.15,13.6,47.59359,-54.27349
2021-11-02 16:44:01+00:00,276.0,4.01,280.0,4.58,13.6,47.59359,-54.27349
2021-11-02 16:54:01+00:00,292.0,3.91,290.0,4.26,13.6,47.59359,-54.27349
2021-11-02 17:04:01+00:00,263.0,3.18,263.0,3.43,13.6,47.59359,-54.27349
2021-11-02 17:14:01+00:00,270.0,3.09,274.0,3.64,14.32,47.59359,-54.27349
2021-11-02 17:24:01+00:00,270.0,4.05,273.0,4.29,14.32,47.59359,-54.27349
2021-11-02 17:34:01+00:00,262.0,3.19,257.0,3.66,14.32,47.59359,-54.27349
2021-11-02 17:44:01+00:00,233.0,4.25,231.0,4.78,14.32,47.59359,-54.27349
2021-11-02 17:54:01+00:00,230.0,4.4,233.0,4.81,14.32,47.59359,-54.27349
2021-11-02 18:04:01+00:00,249.0,4.37,248.0,4.7,14.32,47.59359,-54.27349
2021-11-02 18:14:00+00:00,267.0,4.86,269.0,5.19,14.16,47.59359,-54.27349
2021-11-02 18:24:00+00:00,260.0,4.29,262.0,4.65,14.16,47.59359,-54.27349
2021-11-02 18:34:00+00:00,249.0,4.32,252.0,4.58,14.16,47.59359,-54.27349
2021-11-02 18:44:00+00:00,260.0,4.41,256.0,4.77,14.16,47.59359,-54.27349
2021-11-02 18:54:00+00:00,269.0,5.16,269.0,8.09,14.16,47.59359,-54.27349
2021-11-02 19:04:00+00:00,256.0,4.56,253.0,4.78,14.16,47.59359,-54.27349
2021-11-02 19:14:00+00:00,266.0,5.59,268.0,8.59,13.92,47.59359,-54.27349
2021-11-02 19:24:00+00:00,273.0,5.09,273.0,8.21,13.92,47.59359,-54.27349
2021-11-02 19:34:00+00:00,271.0,6.17,272.0,9.64,13.92,47.59359,-54.27349
2021-11-02 19:44:00+00:00,270.0,4.52,268.0,5.27,13.92,47.59359,-54.27349
2021-11-02 19:54:00+00:00,276.0,8.15,278.0,9.68,13.92,47.59359,-54.27349
2021-11-02 20:04:00+00:00,275.0,3.72,286.0,4.14,13.92,47.59359,-54.27349
2021-11-02 20:14:00+00:00,266.0,4.55,266.0,5.35,13.29,47.59359,-54.27349
2021-11-02 20:24:00+00:00,271.0,4.58,273.0,5.65,13.29,47.59359,-54.27349
2021-11-02 20:34:00+00:00,265.0,5.44,266.0,8.89,13.29,47.59359,-54.27349
2021-11-02 20:44:00+00:00,268.0,6.09,272.0,8.91,13.29,47.59359,-54.27349
2021-11-02 20:54:00+00:00,272.0,7.28,273.0,9.31,13.29,47.59359,-54.27349
2021-11-02 21:04:00+00:00,272.0,4.78,276.0,5.95,13.29,47.59359,-54.27349
2021-11-02 21:14:01+00:00,277.0,4.67,277.0,5.34,12.73,47.59359,-54.27349
2021-11-02 21:24:01+00:00,276.0,4.5,277.0,4.97,12.73,47.59359,-54.27349
2021-11-02 21:34:01+00:00,291.0,4.2,296.0,4.5,12.73,47.59359,-54.27349
2021-11-02 21:44:01+00:00,294.0,4.37,298.0,4.79,12.73,47.59359,-54.27349
2021-11-02 21:54:01+00:00,294.0,4.83,294.0,5.34,12.73,47.59359,-54.27349
2021-11-02 22:04:01+00:00,301.0,5.24,302.0,6.27,12.73,47.59359,-54.27349
2021-11-02 22:14:00+00:00,302.0,5.97,305.0,6.67,12.65,47.59359,-54.27349
2021-11-02 22:24:00+00:00,310.0,5.53,309.0,6.11,12.65,47.59359,-54.27349
2021-11-02 22:34:00+00:00,311.0,5.42,311.0,6.04,12.65,47.59359,-54.27349
2021-11-02 22:44:00+00:00,310.0,5.31,314.0,6.05,12.65,47.59359,-54.27349
2021-11-02 22:54:00+00:00,309.0,5.47,309.0,6.09,12.65,47.59359,-54.27349
2021-11-02 23:04:00+00:00,304.0,5.35,305.0,6.02,12.65,47.59359,-54.27349
2021-11-02 23:14:00+00:00,294.0,5.25,301.0,5.96,12.65,47.59359,-54.27349
2021-11-02 23:24:00+00:00,299.0,6.64,292.0,7.36,12.65,47.59359,-54.27349
2021-11-02 23:34:00+00:00,293.0,5.92,290.0,6.84,12.65,47.59359,-54.27349
2021-11-02 23:44:00+00:00,296.0,5.58,300.0,6.21,12.65,47.59359,-54.27349
2021-11-02 23:54:00+00:00,297.0,5.41,294.0,6.23,12.65,47.59359,-54.27349
